This is the latest recevied weather packets stored in our database for station/object WD4HMR. If no packets are shown the sender has not sent any weather packets the latest 10 day(s).
| Time | Temp. | Humidity | Pressure | Rain* | Wind** | Luminosity | Snow |
|---|---|---|---|---|---|---|---|
| 1777408504 | 18.89° C | 94% | 1016.5 hPa | 0 mm | - | 992 W/m² | - |
| 1777408203 | 18.89° C | 95% | 1016.3 hPa | 0 mm | - | 1010 W/m² | - |
| 1777407904 | 18.89° C | 94% | 1016.4 hPa | 0 mm | - | 1027 W/m² | - |
| 1777407604 | 18.89° C | 94% | 1016.8 hPa | 0 mm | - | 1044 W/m² | - |
| 1777407004 | 19.44° C | 93% | 1017.1 hPa | 0 mm | - | 1076 W/m² | - |
| 1777406104 | 18.89° C | 94% | 1017.2 hPa | 0 mm | - | 1120 W/m² | - |
| 1777403704 | 18.89° C | 95% | 1017.1 hPa | 0 mm | - | 1211 W/m² | - |
| 1777402504 | 18.33° C | 96% | 1016.9 hPa | 0 mm | - | 1241 W/m² | - |
| 1777401604 | 18.33° C | 97% | 1016.7 hPa | 0 mm | - | 1256 W/m² | - |
| 1777397103 | 17.78° C | 99% | 1016.8 hPa | 0 mm | - | 628 W/m² | - |
| 1777396503 | 17.78° C | 99% | 1017.4 hPa | 0 mm | - | 538 W/m² | - |
| 1777396204 | 17.78° C | 99% | 1017.1 hPa | 0 mm | - | 493 W/m² | - |
| 1777395604 | 17.22° C | 98% | 1017.5 hPa | 0 mm | - | 780 W/m² | - |
| 1777394704 | 17.78° C | 97% | 1017.7 hPa | 0 mm | - | 927 W/m² | - |
| 1777394104 | 17.22° C | 97% | 1017.6 hPa | 0 mm | - | 1123 W/m² | - |
| 1777393504 | 17.22° C | 98% | 1017.4 hPa | 0 mm | - | 1094 W/m² | - |
| 1777393204 | 17.22° C | 98% | 1017.3 hPa | 0 mm | - | 1079 W/m² | - |
| 1777392304 | 17.22° C | 98% | 1017 hPa | 0 mm | - | 1030 W/m² | - |
| 1777391704 | 17.22° C | 98% | 1016.7 hPa | 0 mm | - | 996 W/m² | - |
| 1777389904 | 17.22° C | 97% | 1019.3 hPa | 0 mm | - | 882 W/m² | - |
| 1777388104 | 17.78° C | 96% | 1018.5 hPa | 0 mm | - | 759 W/m² | - |
| 1777386004 | 18.33° C | 96% | 1018.7 hPa | 0 mm | - | 456 W/m² | - |
| 1777385404 | 18.33° C | 95% | 1019.2 hPa | 0 mm | - | 289 W/m² | - |
| 1777383304 | 18.33° C | 95% | 1018.6 hPa | 0 mm | - | 284 W/m² | - |
| 1777382704 | 18.89° C | 95% | 1018.5 hPa | 0 mm | - | 290 W/m² | - |
* Rain latest hour (hover to see other rain measurements)
** Current wind speed in m/s (hover to see current wind gust speed)